Orange, MA

2:45 PM EDT on October 23, 2019 (GMT -0400)
Orange Municipal

Weather History for KORE - September, 2019

Change the Weather History Date:

Saturday, September 21, 2019

  Actual Average Record
Temperature  
Mean Temperature 65 °F -  
Max Temperature 84 °F 68 °F 82 °F (1998)
Min Temperature 46 °F 45 °F 35 °F (2010)
Growing Degree Days 15 (Base 50)    
Moisture  
Dew Point 53 °F    
Average Humidity 72    
Maximum Humidity 93    
Minimum Humidity 39    
Precipitation  
Precipitation 0.00 in - - ()
Sea Level Pressure  
Sea Level Pressure 30.20 in    
Wind  
Wind Speed 1 mph ()    
Max Wind Speed 9 mph    
Max Gust Speed -    
Visibility 10.0 miles    
Events      
Averages and records for this station are not official NWS values.
T = Trace of Precipitation, MM = Missing Value Source: Averaged Metar Reports

Daily Weather History Graph

Daily Weather History Graph

Search for Another Location

Airport or City:

Astronomy

Sep. 21, 2019 Rise Set
Actual Time 6:35 AM EDT 6:48 PM EDT
Civil Twilight 6:06 AM EDT 7:16 PM EDT
Nautical Twilight 5:33 AM EDT 7:49 PM EDT
Astronomical Twilight 5:00 AM EDT 8:23 PM EDT
Moon 11:15 PM EDT (9/21) 1:46 PM EDT (9/21)
Length of Visible Light 13h 09m
Length of Day
12h 13m
Waning Gibbous, 55% of the Moon is Illuminated
Sep 21
Waning Gibbous
Sep 21
Last Quarter
Sep 28
New
Oct 5
First Quarter
Oct 13
Full

Hourly Weather History & Observations

Time (EDT) Temp. Heat Index Dew Point Humidity Pressure Visibility Wind Dir Wind Speed Gust Speed Precip Events Conditions
12:52 AM 51.1 °F - 48.9 °F 92% 30.18 in 10.0 mi Calm Calm - N/A   Clear
1:52 AM 50.0 °F - 48.0 °F 93% 30.19 in 10.0 mi Calm Calm - N/A   Clear
2:52 AM 50.0 °F - 46.9 °F 89% 30.20 in 10.0 mi Calm Calm - N/A   Clear
3:52 AM 48.0 °F - 46.0 °F 93% 30.20 in 10.0 mi Calm Calm - N/A   Clear
4:52 AM 48.9 °F - 46.0 °F 90% 30.21 in 10.0 mi Calm Calm - N/A   Clear
5:52 AM 46.9 °F - 45.0 °F 93% 30.22 in 10.0 mi Calm Calm - N/A   Clear
6:52 AM 48.0 °F - 46.0 °F 93% 30.23 in 10.0 mi Calm Calm - N/A   Clear
7:52 AM 52.0 °F - 48.0 °F 86% 30.25 in 10.0 mi Calm Calm - N/A   Clear
8:52 AM 59.0 °F - 51.1 °F 75% 30.25 in 10.0 mi Calm Calm - N/A   Clear
9:52 AM 69.1 °F - 54.0 °F 58% 30.25 in 10.0 mi Calm Calm - N/A   Clear
10:52 AM 75.0 °F - 55.0 °F 50% 30.24 in 10.0 mi NW 4.6 mph - N/A   Clear
11:52 AM 80.1 °F 80.2 °F 55.9 °F 43% 30.22 in 10.0 mi NNE 6.9 mph - N/A   Clear
12:52 PM 81.0 °F 81.0 °F 57.0 °F 44% 30.20 in 10.0 mi Variable 4.6 mph - N/A   Clear
1:52 PM 82.0 °F 81.7 °F 57.0 °F 42% 30.18 in 10.0 mi SSW 4.6 mph - N/A   Clear
2:52 PM 82.9 °F 82.1 °F 55.9 °F 39% 30.17 in 10.0 mi WSW 5.8 mph - N/A   Clear
3:52 PM 84.0 °F 83.5 °F 57.9 °F 41% 30.16 in 10.0 mi WNW 8.1 mph - N/A   Clear
4:52 PM 82.9 °F 82.1 °F 55.9 °F 39% 30.16 in 10.0 mi West 5.8 mph - N/A   Clear
5:52 PM 81.0 °F 81.1 °F 57.9 °F 45% 30.17 in 10.0 mi SSW 9.2 mph - N/A   Clear
7:52 PM 66.9 °F - 61.0 °F 81% 30.17 in 10.0 mi Calm Calm - N/A   Clear
8:52 PM 64.0 °F - 60.1 °F 87% 30.18 in 10.0 mi Calm Calm - N/A   Clear
9:52 PM 61.0 °F - 59.0 °F 93% 30.19 in 10.0 mi Calm Calm - N/A   Clear
10:52 PM 60.1 °F - 57.0 °F 90% 30.19 in 9.0 mi Calm Calm - N/A   Clear
11:52 PM 57.9 °F - 55.9 °F 93% 30.19 in 10.0 mi Calm Calm - N/A   Clear